This is the latest recevied weather packets stored in our database for station/object Hoechsten. If no packets are shown the sender has not sent any weather packets the latest 10 day(s).
| Time | Temp. | Humidity | Pressure | Rain* | Wind** | Luminosity | Snow |
|---|---|---|---|---|---|---|---|
| 1778167930 | 13.89° C | 66% | 1012.2 hPa | 1.27 mm | - | - | - |
| 1778166130 | 12.78° C | 71% | 1012.2 hPa | 1.27 mm | - | - | - |
| 1778164332 | 12.78° C | 72% | 1012.2 hPa | 1.27 mm | - | - | - |
| 1778162530 | 11.67° C | 75% | 1012.2 hPa | 1.27 mm | - | - | - |
| 1778160730 | 12.78° C | 73% | 1012.4 hPa | 1.27 mm | - | - | - |
| 1778158930 | 12.78° C | 72% | 1012.1 hPa | 1.27 mm | - | - | - |
| 1778157130 | 11.67° C | 72% | 1012.2 hPa | 1.27 mm | - | - | - |
| 1778155331 | 11.67° C | 74% | 1012.2 hPa | 1.27 mm | - | - | - |
| 1778153530 | 10° C | 70% | 1012.4 hPa | 1.27 mm | - | - | - |
| 1778151730 | 9.44° C | 60% | 1012.5 hPa | 1.27 mm | - | - | - |
| 1778149936 | 8.89° C | 54% | 1012.7 hPa | 1.27 mm | - | - | - |
| 1778148132 | 8.33° C | 56% | 1012.6 hPa | 1.27 mm | - | - | - |
| 1778146331 | 8.33° C | 57% | 1012.3 hPa | 1.27 mm | - | - | - |
| 1778144531 | 7.78° C | 57% | 1012.2 hPa | 1.27 mm | - | - | - |
| 1778142732 | 7.78° C | 58% | 1011.9 hPa | 1.27 mm | - | - | - |
| 1778140931 | 6.67° C | 58% | 1011.8 hPa | 1.27 mm | - | - | - |
| 1778139132 | 6.67° C | 58% | 1011.5 hPa | 1.27 mm | - | - | - |
| 1778137332 | 6.67° C | 59% | 1011.2 hPa | 1.27 mm | - | - | - |
| 1778135532 | 6.67° C | 59% | 1010.9 hPa | 1.27 mm | - | - | - |
| 1778133731 | 6.11° C | 59% | 1010.7 hPa | 1.27 mm | - | - | - |
| 1778131931 | 6.11° C | 59% | 1010.4 hPa | 1.02 mm | - | - | - |
| 1778130133 | 6.11° C | 59% | 1009.9 hPa | 0.25 mm | - | - | - |
| 1778128331 | 6.11° C | 59% | 1009.5 hPa | 0 mm | - | - | - |
| 1778126536 | 6.11° C | 59% | 1009.3 hPa | 0 mm | - | - | - |
| 1778124731 | 6.11° C | 59% | 1009.1 hPa | 0 mm | - | - | - |
* Rain since midnight (hover to see other rain measurements)
** Current wind speed in m/s (hover to see current wind gust speed)